Lapse_Rate
6.9 6.9 6.8 6.5 6.4 6.4 6.5 6.4 6.4 6.5 6.5 6.1 6.0 5.8 5.6 5.4 5.3 5.5 5.5 5.5 5.6 5.7
7.1 6.9 6.8 6.7 6.5 6.5 6.5 6.3 6.1 6.3 6.2 6.0 6.0 5.7 5.6 5.4 5.4 5.5 5.5 5.6 5.7 5.8
7.0 6.9 6.8 6.7 6.6 6.4 6.3 6.1 6.0 6.1 6.0 5.7 5.8 5.7 5.6 5.4 5.6 5.7 5.6 5.8 5.8 5.8
7.1 7.0 6.9 6.8 6.6 6.4 6.3 6.1 5.8 5.8 6.1 5.7 5.7 5.7 5.6 5.6 5.7 5.7 5.8 5.8 5.9 5.9
7.0 6.9 6.9 6.9 6.8 6.6 6.4 6.2 6.2 5.5 5.9 5.8 5.7 5.7 5.7 5.7 5.8 5.9 5.9 6.0 6.0 6.0
6.9 7.0 7.0 7.0 6.9 6.8 6.6 6.4 6.1 5.9 5.7 5.8 5.7 5.8 5.8 5.9 6.0 6.0 6.0 6.0 5.9 6.0
7.0 7.0 7.1 7.1 6.9 6.8 6.6 6.6 6.3 5.7 5.4 5.6 5.7 5.9 6.0 6.0 6.1 6.0 6.0 6.0 6.1 6.2
7.1 7.1 7.0 7.0 6.9 6.8 6.6 6.4 5.6 5.7 5.7 5.9 5.9 6.1 6.1 6.2 6.2 6.1 6.1 6.2 6.1 6.0
7.2 7.1 7.0 7.0 6.9 6.8 6.6 6.6 6.1 5.6 5.7 6.1 6.1 6.2 6.4 6.4 6.3 6.3 6.2 6.0 5.9 5.8
7.4 7.3 7.2 7.0 6.9 6.9 6.7 6.7 5.8 6.2 6.5 6.5 6.5 6.6 6.7 6.6 6.5 6.2 6.0 5.8 5.7 5.5
7.7 7.6 7.4 7.3 7.2 7.2 7.1 6.8 7.1 6.9 7.0 6.8 6.8 6.7 6.8 6.6 6.4 6.1 5.9 5.6 5.4 5.6
7.7 7.5 7.4 7.5 7.5 7.6 7.7 7.7 7.3 7.2 7.2 7.1 6.8 6.7 6.5 6.3 6.0 5.8 5.7 5.6 5.7 5.6
7.5 7.6 7.7 7.5 7.4 7.4 7.4 7.4 7.4 7.3 7.0 6.7 6.4 6.2 6.1 5.9 5.8 5.7 5.5 5.6 5.4 4.8
7.6 7.6 7.5 7.5 7.4 7.2 7.1 7.1 7.1 7.0 6.7 6.4 6.3 6.2 6.1 5.8 5.5 5.6 5.3 5.2 5.0 4.4
Wind_Speed
18 12 13 14 11 10 11 11 13 11 13 13 12 10 9 8 7 9 6 8 6 5
16 13 11 15 13 10 9 8 11 13 13 12 13 12 12 6 8 8 7 7 7 5
12 12 11 10 11 12 10 13 13 11 13 11 12 13 13 8 10 9 6 6 8 6
13 11 10 9 9 10 11 12 14 15 11 12 11 13 10 10 10 10 9 7 8 8
11 11 10 12 13 12 12 12 12 12 12 12 12 12 11 11 10 11 10 10 9 9
10 11 11 10 12 13 12 11 9 13 13 12 12 13 11 11 10 10 9 10 9 9
10 9 8 8 10 11 12 12 11 11 12 11 12 12 11 11 11 10 8 8 8 8
6 6 6 8 8 8 10 9 11 11 11 12 11 8 12 11 11 11 10 8 8 9
8 7 7 8 9 9 9 10 10 10 11 11 6 17 18 13 10 10 10 10 8 10
8 9 9 9 10 11 11 11 10 11 11 11 10 20 20 16 9 9 9 9 9 7
9 9 10 11 11 11 11 12 12 10 11 10 9 21 21 17 10 9 10 10 9 8
10 11 12 13 13 11 11 9 10 10 11 11 10 20 21 15 9 8 9 7 10 9
11 11 12 12 12 10 10 9 7 8 8 10 11 18 21 15 8 9 6 6 6 13
10 11 11 11 9 9 9 9 8 9 7 7 9 14 21 20 8 8 7 7 7 7
Wind_Direction
219 222 221 221 213 207 189 188 162 161 161 144 142 136 136 138 133 130 132 135 126 122
217 214 219 219 212 203 183 168 152 151 144 142 139 151 146 139 137 131 133 133 132 126
209 208 209 201 192 184 171 160 161 150 154 149 143 156 139 142 145 139 135 140 141 133
210 201 183 179 176 170 160 165 170 164 160 155 151 150 147 152 152 147 143 143 144 138
208 197 187 192 181 171 166 173 159 163 158 159 150 149 156 155 158 155 155 156 150 144
205 200 197 186 174 175 162 162 155 166 160 157 151 153 158 158 158 159 156 159 155 153
205 198 191 178 168 163 161 156 157 167 159 148 148 155 150 155 155 154 155 153 151 157
189 176 153 157 152 141 155 149 161 154 148 147 150 156 156 158 160 159 151 149 153 164
166 149 155 148 149 144 148 146 160 164 152 153 153 162 162 158 160 160 156 158 161 162
165 167 163 156 154 157 161 156 157 161 162 159 157 168 168 159 156 159 163 163 164 167
173 169 162 163 169 165 168 170 166 159 168 159 168 170 169 162 155 160 165 168 168 172
179 175 173 177 175 171 168 169 172 168 168 165 165 172 171 160 159 160 165 169 175 182
183 179 183 182 177 174 174 168 164 164 174 166 162 176 174 169 162 161 166 169 184 199
186 186 183 174 171 162 162 153 160 167 167 170 171 178 181 181 176 173 170 181 192 200